{"data":{"norad_id":64356,"epoch":"2026-09-20T09:33:36.260640Z","epoch_age_seconds":142960,"freshness":"FRESH","line1":"1 64356U 25126N   26263.39833635  .00009420  00000+0  33169-3 0  9998","line2":"2 64356  69.9999 261.2825 0003660 270.3641  89.7115 15.29581102 69900","mean_motion":15.29581102,"eccentricity":0.000366,"inclination_deg":69.9999,"raan_deg":261.2825,"arg_perigee_deg":270.3641,"mean_anomaly_deg":89.7115,"bstar":0.00033169,"rev_number":6990,"period_min":94.14342254341,"perigee_km":474.55460692481,"apogee_km":479.57261377159,"semimajor_km":6855.2006103482,"source":"CELESTRAK","updated_at":"2026-09-21T09:00:35.318301Z"}}